Flag for Tunisia Weather past 2 weeks in Tunis, Tunisia

Now
54 °F

Passing clouds.


Feels Like: 52 °F
Forecast: 51 / 65 °F
Wind: 6 mph from Southwest

Location: Tunis-Carthage

Current Time: Jan 29, 2015 at 7:57:46 PM

Latest Report: Jan 29, 2015 at 7:30 PM


Visibility: N/A

Pressure: 29.83 "Hg

Humidity: 72%

Dew point: 45 °F

Location of TunisLocation

Historic Weather in Tunis — Graph

°F

Tunis temperature yesterday

Maximum temperature yesterday: 55 °F (at 1:30 PM)
Minimum temperature yesterday: 48 °F (at 3:30 AM)
Average temperature yesterday: 51 °F

Past Weeks' High & Low Weather Summary

 TemperatureHumidityPressure
High75 °F (Jan 16, 3:00 PM)94% (Jan 16, 1:30 AM)30.30 "Hg (Jan 16, 1:30 AM)
Low43 °F (Jan 26, 4:30 AM)34% (Jan 20, 3:30 PM)29.62 "Hg (Jan 22, 3:30 PM)
Average53 °F70%29.94 "Hg
* Reported Jan 14 6:00 PM — Jan 29 6:30 PM, Tunis, Weather by CustomWeather, © 2014

Note: Actual official high and low records may vary slightly from our data, if they occured in-between our weather recording intervals... More about our weather records

Advertising

Tunis weather history for previous 24 hours

 ConditionsComfort  
Time TempWeatherWind HumidityBarometerVisibility
6:30 PM
Jan 29
54 °FPassing clouds.7 mph72%29.83 "HgN/A
6:00 PM55 °FPassing clouds.7 mph72%29.83 "HgN/A
5:30 PM57 °FScattered clouds.8 mph67%29.83 "HgN/A
5:00 PM57 °FScattered clouds.10 mph67%29.83 "HgN/A
4:30 PM55 °FScattered clouds.10 mph72%29.86 "HgN/A
4:00 PM57 °FScattered clouds.13 mph67%29.86 "HgN/A
3:30 PM57 °FScattered clouds.13 mph67%29.86 "HgN/A
3:00 PM57 °FScattered clouds.14 mph67%29.86 "HgN/A
2:30 PM57 °FScattered clouds.16 mph67%29.86 "HgN/A
2:00 PM57 °FScattered clouds.12 mph67%29.89 "HgN/A
1:30 PM57 °FScattered clouds.10 mph67%29.89 "HgN/A
1:00 PM57 °FScattered clouds.9 mph67%29.92 "HgN/A
12:30 PM57 °FScattered clouds.9 mph63%29.92 "HgN/A
12:00 PM57 °FScattered clouds.9 mph63%29.95 "HgN/A
11:30 AM54 °FScattered clouds.13 mph72%29.95 "HgN/A
11:00 AM55 °FScattered clouds.8 mph72%29.98 "HgN/A
10:30 AM55 °FScattered clouds.9 mph67%29.95 "HgN/A
10:00 AM54 °FScattered clouds.7 mph77%29.95 "HgN/A
9:30 AM54 °FScattered clouds.3 mph77%29.98 "HgN/A
9:00 AM50 °FScattered clouds.No wind88%29.95 "HgN/A
8:30 AM48 °FScattered clouds.3 mph87%29.95 "HgN/A
8:00 AM48 °FScattered clouds.3 mph87%29.95 "HgN/A
7:30 AM46 °FScattered clouds.7 mph93%29.95 "HgN/A
7:00 AM48 °FRain. Passing clouds.8 mph87%29.95 "Hg5 mi
6:30 AM48 °FPassing clouds.5 mph87%29.95 "HgN/A
6:00 AM48 °FPassing clouds.8 mph87%29.95 "HgN/A
5:30 AM48 °FPassing clouds.8 mph87%29.92 "HgN/A
5:00 AM48 °FPassing clouds.7 mph82%29.95 "HgN/A
4:30 AM48 °FPassing clouds.7 mph82%29.95 "HgN/A
4:00 AM48 °FPassing clouds.7 mph82%29.95 "HgN/A
3:30 AM48 °FPassing clouds.8 mph82%29.95 "HgN/A
3:00 AM50 °FPassing clouds.7 mph71%29.95 "HgN/A
2:30 AM50 °FPassing clouds.8 mph76%29.95 "HgN/A
2:00 AM48 °FPassing clouds.8 mph82%29.98 "HgN/A
1:30 AM48 °FPassing clouds.8 mph76%29.98 "HgN/A
1:00 AM48 °FPassing clouds.7 mph76%29.98 "HgN/A
12:30 AM50 °FPassing clouds.10 mph71%29.98 "HgN/A
12:00 AM50 °FPassing clouds.12 mph67%29.98 "HgN/A
11:30 PM
Jan 28
50 °FPassing clouds.7 mph58%29.98 "HgN/A
11:00 PM48 °FPassing clouds.6 mph62%29.98 "HgN/A
10:30 PM48 °FPassing clouds.7 mph66%29.98 "HgN/A
10:00 PM48 °FPassing clouds.9 mph71%29.98 "HgN/A
9:30 PM50 °FPassing clouds.8 mph67%30.01 "HgN/A
9:00 PM50 °FPassing clouds.5 mph58%30.01 "HgN/A
8:30 PM50 °FPassing clouds.3 mph54%30.01 "HgN/A
8:00 PM50 °FPassing clouds.2 mph58%30.01 "HgN/A
7:30 PM50 °FPassing clouds.3 mph58%30.01 "HgN/A
7:00 PM50 °FPassing clouds.6 mph58%29.98 "HgN/A
Weather by CustomWeather, © 2014

See weather overviewHow to use our weather pages